| time (UTC) | temp C | wind direction | speed KPH | gust KPH | rain 1hr cm | rain 24hr cm | rain mn cm | humidity % | barometer mb |
| 20260509054559 | 11 | 203 | 6.4 | 17.7 | 0.00 | 0.00 | 0.00 | 51 | 1022.0 |
| 20260509054049 | 11 | 203 | 12.9 | 17.7 | 0.00 | 0.00 | 0.00 | 51 | 1022.0 |
| 20260509053029 | 11 | 225 | 6.4 | 12.9 | 0.00 | 0.00 | 0.00 | 51 | 1021.9 |
| 20260509052518 | 11 | 225 | 4.8 | 9.7 | 0.00 | 0.00 | 0.00 | 52 | 1021.5 |
| 20260509051511 | 12 | 225 | 4.8 | 6.4 | 0.00 | 0.00 | 0.00 | 54 | 1021.3 |
| 20260509051005 | 12 | 225 | 3.2 | 3.2 | 0.00 | 0.00 | 0.00 | 55 | 1021.5 |
| 20260509050438 | 11 | 225 | 3.2 | 6.4 | 0.00 | 0.00 | 0.00 | 56 | 1020.9 |
| 20260509045928 | 12 | 293 | 3.2 | 6.4 | 0.00 | 0.00 | 0.00 | 56 | 1020.8 |
| 20260509045422 | 12 | 248 | 3.2 | 6.4 | 0.00 | 0.00 | 0.00 | 56 | 1020.9 |
| 20260509044907 | 12 | 225 | 1.6 | 6.4 | 0.00 | 0.00 | 0.00 | 56 | 1020.5 |
| 20260509044405 | 12 | 248 | 3.2 | 14.5 | 0.00 | 0.00 | 0.00 | 55 | 1020.4 |
| 20260509043847 | 12 | 225 | 6.4 | 14.5 | 0.00 | 0.00 | 0.00 | 54 | 1020.3 |
| 20260509042827 | 12 | 203 | 4.8 | 17.7 | 0.00 | 0.00 | 0.00 | 54 | 1020.0 |
| 20260509042316 | 12 | 180 | 6.4 | 14.5 | 0.00 | 0.00 | 0.00 | 54 | 1019.9 |
| 20260509041810 | 12 | 225 | 8.0 | 12.9 | 0.00 | 0.00 | 0.00 | 55 | 1019.8 |
| 20260509040747 | 13 | 225 | 9.7 | 14.5 | 0.00 | 0.00 | 0.00 | 54 | 1019.6 |
| 20260509040236 | 14 | 203 | 6.4 | 11.3 | 0.00 | 0.00 | 0.00 | 50 | 1019.2 |
| 20260509035725 | 14 | 203 | 3.2 | 6.4 | 0.00 | 0.00 | 0.00 | 53 | 1019.2 |
| 20260509035218 | 14 | 225 | 3.2 | 6.4 | 0.00 | 0.00 | 0.00 | 55 | 1019.0 |
| 20260509034706 | 14 | 225 | 1.6 | 6.4 | 0.00 | 0.00 | 0.00 | 54 | 1018.9 |
| 20260509034156 | 14 | 270 | 1.6 | 6.4 | 0.00 | 0.00 | 0.00 | 55 | 1018.6 |
| 20260509033645 | 15 | 248 | 1.6 | 6.4 | 0.00 | 0.00 | 0.00 | 56 | 1018.5 |
| 20260509033135 | 15 | 293 | 1.6 | 9.7 | 0.00 | 0.00 | 0.00 | 51 | 1018.4 |
| 20260509032628 | 15 | 270 | 3.2 | 9.7 | 0.00 | 0.00 | 0.00 | 56 | 1018.3 |
| 20260509032114 | 14 | 248 | 3.2 | 6.4 | 0.00 | 0.00 | 0.00 | 58 | 1018.1 |
| 20260509031605 | 15 | 270 | 3.2 | 9.7 | 0.00 | 0.00 | 0.00 | 57 | 1018.1 |
| 20260509031055 | 15 | 23 | 3.2 | 9.7 | 0.00 | 0.00 | 0.00 | 56 | 1017.9 |
| 20260509030544 | 15 | 338 | 3.2 | 6.4 | 0.00 | 0.00 | 0.00 | 56 | 1017.7 |
| 20260509030037 | 14 | 315 | 3.2 | 6.4 | 0.00 | 0.00 | 0.00 | 56 | 1017.7 |
| 20260509025523 | 14 | 293 | 3.2 | 6.4 | 0.00 | 0.00 | 0.00 | 56 | 1017.5 |
| 20260509025014 | 14 | 293 | 3.2 | 6.4 | 0.00 | 0.00 | 0.00 | 57 | 1017.3 |
| 20260509024504 | 14 | 293 | 3.2 | 6.4 | 0.00 | 0.00 | 0.00 | 56 | 1017.3 |
| 20260509023954 | 14 | 315 | 3.2 | 6.4 | 0.00 | 0.00 | 0.00 | 56 | 1016.8 |
| 20260509023447 | 14 | 293 | 3.2 | 6.4 | 0.00 | 0.00 | 0.00 | 55 | 1016.7 |
| 20260509022934 | 20 | 315 | 1.6 | 6.4 | 0.00 | 0.00 | 0.00 | 73 | 1016.4 |
| 20260509022424 | 13 | 315 | 1.6 | 6.4 | 0.00 | 0.00 | 0.00 | 57 | 1016.1 |
| 20260509021913 | 13 | 315 | 3.2 | 3.2 | 0.00 | 0.00 | 0.00 | 56 | 1015.9 |
| 20260509021402 | 13 | 315 | 0.0 | 3.2 | 0.00 | 0.00 | 0.00 | 57 | 1015.9 |
| 20260509020856 | 14 | 315 | 3.2 | 3.2 | 0.00 | 0.00 | 0.00 | 55 | 1015.9 |
| 20260509020343 | 14 | 315 | 1.6 | 3.2 | 0.00 | 0.00 | 0.00 | 55 | 1015.7 |
| 20260509015832 | 14 | 315 | 3.2 | 3.2 | 0.00 | 0.00 | 0.00 | 54 | 1015.4 |
| 20260509015322 | 14 | 338 | 3.2 | 3.2 | 0.00 | 0.00 | 0.00 | 54 | 1015.3 |
| 20260509014813 | 14 | 315 | 3.2 | 6.4 | 0.00 | 0.00 | 0.00 | 54 | 1015.3 |
| 20260509014305 | 14 | 338 | 1.6 | 6.4 | 0.00 | 0.00 | 0.00 | 54 | 1015.0 |
| 20260509013752 | 14 | 338 | 1.6 | 6.4 | 0.00 | 0.00 | 0.00 | 53 | 1014.8 |
| 20260509012731 | 13 | 0 | 3.2 | 6.4 | 0.00 | 0.00 | 0.00 | 53 | 1014.5 |
| 20260509012221 | 13 | 338 | 3.2 | 6.4 | 0.00 | 0.00 | 0.00 | 54 | 1014.4 |
| 20260509011206 | 13 | 0 | 0.0 | 3.2 | 0.00 | 0.00 | 0.00 | 55 | 1014.3 |
| 20260509010651 | 13 | 23 | 3.2 | 3.2 | 0.00 | 0.00 | 0.00 | 54 | 1013.8 |
| 20260509005630 | 13 | 338 | 3.2 | 6.4 | 0.00 | 0.00 | 0.00 | 55 | 1013.7 |
| 20260509005124 | 13 | 0 | 3.2 | 6.4 | 0.00 | 0.00 | 0.00 | 55 | 1013.6 |
| 20260509004610 | 13 | 0 | 3.2 | 6.4 | 0.00 | 0.00 | 0.00 | 55 | 1013.5 |
| 20260509004100 | 13 | 23 | 3.2 | 6.4 | 0.00 | 0.00 | 0.00 | 55 | 1013.2 |
| 20260509003551 | 13 | 23 | 3.2 | 6.4 | 0.00 | 0.00 | 0.00 | 55 | 1013.1 |
| 20260509003040 | 13 | 23 | 3.2 | 6.4 | 0.00 | 0.00 | 0.00 | 55 | 1013.1 |
| 20260509002533 | 13 | 0 | 3.2 | 6.4 | 0.00 | 0.00 | 0.00 | 55 | 1013.0 |
| 20260509002020 | 13 | 0 | 3.2 | 6.4 | 0.00 | 0.00 | 0.00 | 55 | 1013.1 |
| 20260508235942 | 13 | 0 | 3.2 | 9.7 | 0.00 | 0.00 | 0.00 | 54 | 1013.0 |
| 20260508234919 | 13 | 0 | 3.2 | 11.3 | 0.00 | 0.00 | 0.00 | 54 | 1012.7 |
| 20260508234409 | 13 | 23 | 3.2 | 11.3 | 0.00 | 0.00 | 0.00 | 53 | 1012.8 |
| 20260508233859 | 13 | 23 | 4.8 | 11.3 | 0.00 | 0.00 | 0.00 | 53 | 1012.6 |
| 20260508233352 | 13 | 0 | 3.2 | 9.7 | 0.00 | 0.00 | 0.00 | 53 | 1012.7 |
| 20260508232838 | 13 | 45 | 3.2 | 9.7 | 0.00 | 0.00 | 0.00 | 52 | 1012.6 |
| 20260508232340 | 13 | 45 | 4.8 | 9.7 | 0.00 | 0.00 | 0.00 | 52 | 1012.7 |
| 20260508231819 | 13 | 45 | 4.8 | 9.7 | 0.00 | 0.00 | 0.00 | 52 | 1012.2 |
| 20260508231308 | 13 | 45 | 4.8 | 12.9 | 0.00 | 0.00 | 0.00 | 51 | 1012.5 |
| 20260508230247 | 14 | 45 | 4.8 | 12.9 | 0.00 | 0.00 | 0.00 | 50 | 1012.1 |
| 20260508225737 | 14 | 45 | 6.4 | 17.7 | 0.00 | 0.00 | 0.00 | 50 | 1012.3 |
| 20260508224717 | 14 | 0 | 6.4 | 12.9 | 0.00 | 0.00 | 0.00 | 49 | 1012.2 |
| 20260508224209 | 14 | 90 | 6.4 | 17.7 | 0.00 | 0.00 | 0.00 | 49 | 1011.9 |
| 20260508223656 | 14 | 45 | 8.0 | 17.7 | 0.00 | 0.00 | 0.00 | 49 | 1011.7 |
| 20260508223147 | 14 | 45 | 6.4 | 14.5 | 0.00 | 0.00 | 0.00 | 49 | 1012.0 |
| 20260508222637 | 14 | 45 | 4.8 | 14.5 | 0.00 | 0.00 | 0.00 | 48 | 1011.9 |
| 20260508222126 | 15 | 90 | 6.4 | 14.5 | 0.00 | 0.00 | 0.00 | 48 | 1012.1 |
| 20260508221619 | 15 | 0 | 6.4 | 17.7 | 0.00 | 0.00 | 0.00 | 48 | 1012.0 |
| 20260508221106 | 15 | 23 | 6.4 | 17.7 | 0.00 | 0.00 | 0.00 | 47 | 1011.8 |
| 20260508220555 | 15 | 68 | 4.8 | 17.7 | 0.00 | 0.00 | 0.00 | 47 | 1011.3 |
| 20260508220059 | 15 | 45 | 4.8 | 17.7 | 0.00 | 0.00 | 0.00 | 46 | 1011.5 |
| 20260508215535 | 15 | 338 | 11.3 | 17.7 | 0.00 | 0.00 | 0.00 | 46 | 1011.1 |
| 20260508215028 | 15 | 0 | 3.2 | 17.7 | 0.00 | 0.00 | 0.00 | 46 | 1010.9 |
| 20260508214515 | 15 | 23 | 6.4 | 17.7 | 0.00 | 0.00 | 0.00 | 45 | 1011.1 |
| 20260508214004 | 15 | 23 | 6.4 | 20.9 | 0.00 | 0.00 | 0.00 | 45 | 1011.0 |
| 20260508213455 | 15 | 68 | 9.7 | 20.9 | 0.00 | 0.00 | 0.00 | 44 | 1010.8 |
| 20260508212950 | 15 | 45 | 6.4 | 22.5 | 0.00 | 0.00 | 0.00 | 43 | 1010.8 |
| 20260508212437 | 16 | 90 | 11.3 | 22.5 | 0.00 | 0.00 | 0.00 | 43 | 1010.7 |
| 20260508211930 | 16 | 338 | 6.4 | 24.1 | 0.00 | 0.00 | 0.00 | 43 | 1010.9 |
| 20260508211415 | 16 | 68 | 12.9 | 24.1 | 0.00 | 0.00 | 0.00 | 42 | 1010.4 |
| 20260508210904 | 16 | 23 | 3.2 | 24.1 | 0.00 | 0.00 | 0.00 | 42 | 1010.6 |
| 20260508210354 | 16 | 45 | 4.8 | 25.7 | 0.00 | 0.00 | 0.00 | 41 | 1010.4 |
| 20260508205847 | 16 | 90 | 6.4 | 25.7 | 0.00 | 0.00 | 0.00 | 40 | 1010.4 |
| 20260508205334 | 16 | 45 | 11.3 | 25.7 | 0.00 | 0.00 | 0.00 | 40 | 1010.5 |
| 20260508204823 | 17 | 68 | 6.4 | 25.7 | 0.00 | 0.00 | 0.00 | 40 | 1010.3 |
| 20260508204313 | 17 | 45 | 12.9 | 24.1 | 0.00 | 0.00 | 0.00 | 39 | 1010.5 |
| 20260508203256 | 17 | 68 | 12.9 | 27.4 | 0.00 | 0.00 | 0.00 | 38 | 1010.5 |
| 20260508202743 | 17 | 23 | 8.0 | 24.1 | 0.00 | 0.00 | 0.00 | 38 | 1010.7 |
| 20260508202232 | 17 | 68 | 6.4 | 24.1 | 0.00 | 0.00 | 0.00 | 38 | 1010.2 |
| 20260508201723 | 17 | 45 | 11.3 | 25.7 | 0.00 | 0.00 | 0.00 | 38 | 1010.4 |
| 20260508201213 | 17 | 68 | 8.0 | 25.7 | 0.00 | 0.00 | 0.00 | 38 | 1010.4 |
| 20260508200704 | 17 | 68 | 9.7 | 27.4 | 0.00 | 0.00 | 0.00 | 38 | 1010.2 |
| 20260508200152 | 18 | 45 | 11.3 | 27.4 | 0.00 | 0.00 | 0.00 | 37 | 1010.4 |
| 20260508195642 | 18 | 68 | 8.0 | 29.0 | 0.00 | 0.00 | 0.00 | 37 | 1010.4 |
| 20260508195131 | 17 | 45 | 12.9 | 29.0 | 0.00 | 0.00 | 0.00 | 38 | 1010.2 |
| 20260508194621 | 18 | 45 | 12.9 | 24.1 | 0.00 | 0.00 | 0.00 | 36 | 1010.6 |
| 20260508194115 | 18 | 68 | 9.7 | 22.5 | 0.00 | 0.00 | 0.00 | 36 | 1010.4 |
| 20260508193051 | 18 | 68 | 12.9 | 24.1 | 0.00 | 0.00 | 0.00 | 36 | 1010.6 |
| 20260508192540 | 18 | 90 | 12.9 | 27.4 | 0.00 | 0.00 | 0.00 | 36 | 1010.5 |
| 20260508191523 | 18 | 113 | 12.9 | 22.5 | 0.00 | 0.00 | 0.00 | 36 | 1010.8 |
| 20260508191011 | 18 | 45 | 11.3 | 17.7 | 0.00 | 0.00 | 0.00 | 35 | 1011.1 |
| 20260508190500 | 18 | 45 | 8.0 | 17.7 | 0.00 | 0.00 | 0.00 | 35 | 1011.0 |
| 20260508185951 | 18 | 0 | 8.0 | 17.7 | 0.00 | 0.00 | 0.00 | 35 | 1011.2 |
| 20260508185440 | 18 | 45 | 9.7 | 17.7 | 0.00 | 0.00 | 0.00 | 35 | 1011.5 |
| 20260508184420 | 18 | 23 | 4.8 | 24.1 | 0.00 | 0.00 | 0.00 | 35 | 1012.0 |
| 20260508183909 | 18 | 90 | 6.4 | 22.5 | 0.00 | 0.00 | 0.00 | 35 | 1011.9 |
| 20260508183400 | 18 | 68 | 6.4 | 22.5 | 0.00 | 0.00 | 0.00 | 35 | 1012.0 |
| 20260508182850 | 18 | 68 | 9.7 | 17.7 | 0.00 | 0.00 | 0.00 | 34 | 1011.9 |
| 20260508182342 | 18 | 68 | 9.7 | 17.7 | 0.00 | 0.00 | 0.00 | 35 | 1012.0 |
| 20260508181319 | 18 | 90 | 8.0 | 20.9 | 0.00 | 0.00 | 0.00 | 35 | 1012.3 |
| 20260508180808 | 18 | 68 | 8.0 | 17.7 | 0.00 | 0.00 | 0.00 | 34 | 1012.7 |
| 20260508180258 | 18 | 45 | 4.8 | 14.5 | 0.00 | 0.00 | 0.00 | 35 | 1012.9 |
| 20260508175751 | 18 | 90 | 4.8 | 14.5 | 0.00 | 0.00 | 0.00 | 36 | 1013.2 |
| 20260508175238 | 18 | 68 | 8.0 | 12.9 | 0.00 | 0.00 | 0.00 | 36 | 1012.9 |
| 20260508174745 | 17 | 68 | 3.2 | 14.5 | 0.00 | 0.00 | 0.00 | 36 | 1013.5 |
| 20260508174219 | 18 | 113 | 3.2 | 14.5 | 0.00 | 0.00 | 0.00 | 38 | 1013.8 |
| 20260508173713 | 17 | 113 | 6.4 | 11.3 | 0.00 | 0.00 | 0.00 | 37 | 1013.6 |
| 20260508173201 | 17 | 113 | 3.2 | 11.3 | 0.00 | 0.00 | 0.00 | 37 | 1013.9 |
| 20260508172648 | 17 | 68 | 3.2 | 9.7 | 0.00 | 0.00 | 0.00 | 35 | 1014.3 |
| 20260508172137 | 16 | 90 | 3.2 | 6.4 | 0.00 | 0.00 | 0.00 | 37 | 1014.3 |
| 20260508171628 | 16 | 135 | 4.8 | 11.3 | 0.00 | 0.00 | 0.00 | 36 | 1014.4 |
| 20260508171117 | 17 | 0 | 1.6 | 11.3 | 0.00 | 0.00 | 0.00 | 36 | 1014.5 |
| 20260508170610 | 17 | 68 | 3.2 | 11.3 | 0.00 | 0.00 | 0.00 | 37 | 1014.7 |
| 20260508165547 | 16 | 45 | 3.2 | 11.3 | 0.00 | 0.00 | 0.00 | 38 | 1015.5 |
| 20260508165036 | 15 | 315 | 6.4 | 11.3 | 0.00 | 0.00 | 0.00 | 36 | 1015.4 |
| 20260508164527 | 16 | 315 | 3.2 | 6.4 | 0.00 | 0.00 | 0.00 | 36 | 1015.7 |
| 20260508164019 | 15 | 113 | 3.2 | 9.7 | 0.00 | 0.00 | 0.00 | 36 | 1016.0 |
| 20260508163506 | 15 | 113 | 3.2 | 9.7 | 0.00 | 0.00 | 0.00 | 37 | 1016.1 |
| 20260508162957 | 15 | 135 | 3.2 | 6.4 | 0.00 | 0.00 | 0.00 | 39 | 1016.4 |
| 20260508162447 | 15 | 23 | 1.6 | 6.4 | 0.00 | 0.00 | 0.00 | 37 | 1016.6 |
| 20260508161936 | 15 | 0 | 3.2 | 9.7 | 0.00 | 0.00 | 0.00 | 37 | 1017.0 |
| 20260508161429 | 15 | 68 | 6.4 | 12.9 | 0.00 | 0.00 | 0.00 | 38 | 1017.0 |
| 20260508160915 | 14 | 68 | 3.2 | 12.9 | 0.00 | 0.00 | 0.00 | 39 | 1017.0 |
| 20260508160419 | 14 | 113 | 8.0 | 12.9 | 0.00 | 0.00 | 0.00 | 39 | 1017.3 |
| 20260508155856 | 13 | 90 | 3.2 | 17.7 | 0.00 | 0.00 | 0.00 | 39 | 1017.5 |
| 20260508155345 | 14 | 0 | 3.2 | 17.7 | 0.00 | 0.00 | 0.00 | 38 | 1017.9 |
| 20260508154838 | 14 | 68 | 4.8 | 12.9 | 0.00 | 0.00 | 0.00 | 41 | 1017.6 |
| 20260508154326 | 14 | 68 | 3.2 | 11.3 | 0.00 | 0.00 | 0.00 | 40 | 1018.0 |
| 20260508153814 | 13 | 23 | 3.2 | 11.3 | 0.00 | 0.00 | 0.00 | 42 | 1018.2 |
| 20260508152247 | 12 | 68 | 6.4 | 11.3 | 0.00 | 0.00 | 0.00 | 41 | 1018.4 |
| 20260508151734 | 12 | 45 | 3.2 | 11.3 | 0.00 | 0.00 | 0.00 | 43 | 1018.4 |
| 20260508151224 | 13 | 90 | 4.8 | 9.7 | 0.00 | 0.00 | 0.00 | 43 | 1018.6 |
| 20260508150726 | 12 | 338 | 4.8 | 9.7 | 0.00 | 0.00 | 0.00 | 43 | 1019.1 |
| 20260508145656 | 13 | 68 | 3.2 | 6.4 | 0.00 | 0.00 | 0.00 | 42 | 1019.5 |
| 20260508144633 | 12 | 45 | 6.4 | 6.4 | 0.00 | 0.00 | 0.00 | 45 | 1020.0 |
| 20260508144124 | 12 | 45 | 1.6 | 9.7 | 0.00 | 0.00 | 0.00 | 45 | 1019.8 |
| 20260508143613 | 12 | 90 | 3.2 | 9.7 | 0.00 | 0.00 | 0.00 | 47 | 1020.1 |
| 20260508143106 | 12 | 113 | 4.8 | 9.7 | 0.00 | 0.00 | 0.00 | 46 | 1020.2 |
| 20260508142606 | 12 | 135 | 1.6 | 9.7 | 0.00 | 0.00 | 0.00 | 45 | 1020.3 |
| 20260508142043 | 11 | 135 | 3.2 | 9.7 | 0.00 | 0.00 | 0.00 | 47 | 1020.5 |
| 20260508141023 | 11 | 158 | 3.2 | 6.4 | 0.00 | 0.00 | 0.00 | 44 | 1020.3 |
| 20260508140528 | 11 | 113 | 3.2 | 6.4 | 0.00 | 0.00 | 0.00 | 46 | 1020.4 |
| 20260508140002 | 11 | 113 | 3.2 | 6.4 | 0.00 | 0.00 | 0.00 | 47 | 1020.5 |
| 20260508135502 | 11 | 203 | 3.2 | 9.7 | 0.00 | 0.00 | 0.00 | 49 | 1020.5 |
| 20260508134942 | 10 | 225 | 4.8 | 9.7 | 0.00 | 0.00 | 0.00 | 49 | 1020.8 |
| 20260508133925 | 10 | 158 | 3.2 | 9.7 | 0.00 | 0.00 | 0.00 | 50 | 1020.9 |
| 20260508133412 | 10 | 203 | 4.8 | 9.7 | 0.00 | 0.00 | 0.00 | 49 | 1020.7 |
| 20260508132902 | 10 | 203 | 6.4 | 9.7 | 0.00 | 0.00 | 0.00 | 49 | 1020.8 |
| 20260508131853 | 10 | 225 | 4.8 | 11.3 | 0.00 | 0.00 | 0.00 | 50 | 1020.7 |
| 20260508131334 | 9 | 203 | 3.2 | 11.3 | 0.00 | 0.00 | 0.00 | 51 | 1020.5 |
| 20260508130310 | 8 | 248 | 4.8 | 11.3 | 0.00 | 0.00 | 0.00 | 53 | 1020.3 |
| 20260508125800 | 8 | 248 | 3.2 | 9.7 | 0.00 | 0.00 | 0.00 | 53 | 1020.2 |
| 20260508124743 | 8 | 203 | 3.2 | 11.3 | 0.00 | 0.00 | 0.00 | 55 | 1020.2 |
| 20260508124230 | 8 | 203 | 6.4 | 11.3 | 0.00 | 0.00 | 0.00 | 56 | 1020.0 |
| 20260508123719 | 8 | 203 | 3.2 | 11.3 | 0.00 | 0.00 | 0.00 | 59 | 1020.1 |
| 20260508123209 | 8 | 158 | 6.4 | 11.3 | 0.00 | 0.00 | 0.00 | 59 | 1019.7 |
| 20260508122700 | 8 | 158 | 3.2 | 11.3 | 0.00 | 0.00 | 0.00 | 60 | 1019.5 |
| 20260508122152 | 9 | 203 | 4.8 | 11.3 | 0.00 | 0.00 | 0.00 | 57 | 1019.2 |
| 20260508121639 | 9 | 135 | 6.4 | 12.9 | 0.00 | 0.00 | 0.00 | 54 | 1019.3 |
| 20260508121129 | 10 | 180 | 3.2 | 12.9 | 0.00 | 0.00 | 0.00 | 52 | 1018.6 |
| 20260508120619 | 11 | 158 | 6.4 | 12.9 | 0.00 | 0.00 | 0.00 | 44 | 1018.4 |
| 20260508120113 | 11 | 225 | 3.2 | 6.4 | 0.00 | 0.00 | 0.00 | 43 | 1018.3 |
| 20260508115601 | 11 | 225 | 3.2 | 6.4 | 0.00 | 0.00 | 0.00 | 45 | 1018.2 |
| 20260508115048 | 11 | 248 | 3.2 | 6.4 | 0.00 | 0.00 | 0.00 | 46 | 1018.0 |
| 20260508114028 | 11 | 248 | 1.6 | 9.7 | 0.00 | 0.00 | 0.00 | 48 | 1017.9 |
| 20260508113518 | 10 | 248 | 3.2 | 9.7 | 0.00 | 0.00 | 0.00 | 50 | 1017.6 |
| 20260508113011 | 10 | 293 | 3.2 | 12.9 | 0.00 | 0.00 | 0.00 | 50 | 1017.5 |
| 20260508111948 | 10 | 248 | 1.6 | 20.9 | 0.00 | 0.00 | 0.00 | 51 | 1017.5 |
| 20260508111438 | 10 | 270 | 6.4 | 22.5 | 0.00 | 0.00 | 0.00 | 50 | 1017.3 |
| 20260508105907 | 12 | 248 | 6.4 | 6.4 | 0.00 | 0.00 | 0.00 | 51 | 1017.0 |
| 20260508105358 | 11 | 225 | 3.2 | 3.2 | 0.00 | 0.00 | 0.00 | 55 | 1016.6 |
| 20260508104846 | 11 | 248 | 1.6 | 3.2 | 0.00 | 0.00 | 0.00 | 57 | 1016.3 |
| 20260508103829 | 10 | 270 | 0.0 | 6.4 | 0.00 | 0.00 | 0.00 | 66 | 1016.0 |
| 20260508103317 | 10 | 270 | 1.6 | 9.7 | 0.00 | 0.00 | 0.00 | 71 | 1016.0 |
| 20260508102805 | 10 | 225 | 3.2 | 11.3 | 0.00 | 0.00 | 0.00 | 73 | 1016.2 |
| 20260508102255 | 10 | 203 | 6.4 | 11.3 | 0.00 | 0.00 | 0.00 | 76 | 1015.9 |
| 20260508101747 | 10 | 225 | 4.8 | 11.3 | 0.00 | 0.00 | 0.00 | 68 | 1015.8 |
| 20260508101248 | 11 | 0 | 0.0 | 3.2 | 0.00 | 0.00 | 0.00 | 63 | 1015.3 |
| 20260508100221 | 11 | 338 | 3.2 | 3.2 | 0.00 | 0.00 | 0.00 | 66 | 1015.2 |
| 20260508095705 | 10 | 338 | 1.6 | 3.2 | 0.00 | 0.00 | 0.00 | 70 | 1014.8 |
| 20260508095155 | 10 | 338 | 1.6 | 3.2 | 0.00 | 0.00 | 0.00 | 71 | 1014.7 |
| 20260508094647 | 10 | 338 | 0.0 | 3.2 | 0.00 | 0.00 | 0.00 | 70 | 1014.7 |
| 20260508094134 | 10 | 338 | 3.2 | 3.2 | 0.00 | 0.00 | 0.00 | 71 | 1014.7 |
| 20260508092604 | 11 | 248 | 0.0 | 6.4 | 0.00 | 0.00 | 0.00 | 63 | 1014.6 |
| 20260508091544 | 11 | 293 | 3.2 | 6.4 | 0.00 | 0.00 | 0.00 | 60 | 1014.2 |
| 20260508091033 | 10 | 293 | 0.0 | 3.2 | 0.00 | 0.00 | 0.00 | 66 | 1014.2 |
| 20260508090523 | 10 | 293 | 0.0 | 3.2 | 0.00 | 0.00 | 0.00 | 69 | 1014.1 |
| 20260508090014 | 10 | 293 | 0.0 | 3.2 | 0.00 | 0.00 | 0.00 | 71 | 1014.2 |
| 20260508085507 | 9 | 293 | 0.0 | 3.2 | 0.00 | 0.00 | 0.00 | 72 | 1014.1 |
| 20260508084954 | 9 | 293 | 0.0 | 3.2 | 0.00 | 0.00 | 0.00 | 74 | 1013.9 |
| 20260508084443 | 9 | 293 | 0.0 | 3.2 | 0.00 | 0.00 | 0.00 | 74 | 1013.7 |
| 20260508083933 | 10 | 293 | 1.6 | 3.2 | 0.00 | 0.00 | 0.00 | 72 | 1013.9 |
| 20260508083422 | 10 | 293 | 3.2 | 3.2 | 0.00 | 0.00 | 0.00 | 72 | 1014.0 |
| 20260508082915 | 10 | 338 | 0.0 | 3.2 | 0.00 | 0.00 | 0.00 | 73 | 1013.8 |
| 20260508082402 | 10 | 338 | 0.0 | 3.2 | 0.00 | 0.00 | 0.00 | 73 | 1013.6 |
| 20260508081852 | 10 | 338 | 0.0 | 3.2 | 0.00 | 0.00 | 0.00 | 71 | 1013.7 |
| 20260508081342 | 10 | 338 | 1.6 | 3.2 | 0.00 | 0.00 | 0.00 | 68 | 1013.7 |
| 20260508080832 | 10 | 338 | 0.0 | 3.2 | 0.00 | 0.00 | 0.00 | 67 | 1013.6 |
| 20260508080328 | 10 | 338 | 1.6 | 3.2 | 0.00 | 0.00 | 0.00 | 64 | 1013.5 |
| 20260508075811 | 10 | 338 | 1.6 | 3.2 | 0.00 | 0.00 | 0.00 | 62 | 1013.6 |
| 20260508075301 | 10 | 338 | 1.6 | 3.2 | 0.00 | 0.00 | 0.00 | 62 | 1013.5 |
| 20260508074751 | 10 | 338 | 0.0 | 3.2 | 0.00 | 0.00 | 0.00 | 66 | 1013.7 |
| 20260508074241 | 10 | 338 | 0.0 | 3.2 | 0.00 | 0.00 | 0.00 | 68 | 1013.5 |
| 20260508073734 | 10 | 338 | 0.0 | 3.2 | 0.00 | 0.00 | 0.00 | 67 | 1013.5 |
| 20260508072710 | 11 | 338 | 1.6 | 3.2 | 0.00 | 0.00 | 0.00 | 65 | 1013.6 |
| 20260508072201 | 11 | 315 | 0.0 | 3.2 | 0.00 | 0.00 | 0.00 | 58 | 1013.7 |
| 20260508071650 | 11 | 315 | 0.0 | 3.2 | 0.00 | 0.00 | 0.00 | 53 | 1013.8 |
| 20260508071143 | 11 | 315 | 3.2 | 3.2 | 0.00 | 0.00 | 0.00 | 56 | 1013.7 |
| 20260508070630 | 11 | 315 | 3.2 | 3.2 | 0.00 | 0.00 | 0.00 | 59 | 1013.9 |
| 20260508070120 | 10 | 315 | 3.2 | 3.2 | 0.00 | 0.00 | 0.00 | 62 | 1014.0 |
| 20260508065610 | 11 | 315 | 1.6 | 3.2 | 0.00 | 0.00 | 0.00 | 64 | 1013.9 |
| 20260508065059 | 10 | 315 | 3.2 | 3.2 | 0.00 | 0.00 | 0.00 | 67 | 1014.0 |
| 20260508064553 | 10 | 315 | 0.0 | 3.2 | 0.00 | 0.00 | 0.00 | 67 | 1014.1 |
| 20260508064039 | 10 | 315 | 1.6 | 3.2 | 0.00 | 0.00 | 0.00 | 67 | 1014.1 |
| 20260508063529 | 11 | 315 | 1.6 | 3.2 | 0.00 | 0.00 | 0.00 | 63 | 1014.2 |
| 20260508063028 | 10 | 315 | 0.0 | 0.0 | 0.00 | 0.00 | 0.00 | 65 | 1013.9 |
| 20260508062509 | 10 | 315 | 0.0 | 0.0 | 0.00 | 0.00 | 0.00 | 66 | 1014.0 |
| 20260508062002 | 10 | 315 | 0.0 | 0.0 | 0.00 | 0.00 | 0.00 | 64 | 1014.2 |
| 20260508061725 | 11 | 315 | 0.0 | 0.0 | 0.00 | 0.00 | 0.00 | 65 | 1014.3 |
| 20260508061144 | 10 | 315 | 0.0 | 3.2 | 0.00 | 0.43 | 0.00 | 65 | 1014.2 |
| 20260508060634 | 11 | 315 | 3.2 | 3.2 | 0.00 | 0.43 | 0.00 | 61 | 1014.1 |
| 20260508060127 | 10 | 315 | 0.0 | 3.2 | 0.00 | 0.43 | 0.00 | 62 | 1014.4 |
| 20260508055613 | 10 | 315 | 0.0 | 3.2 | 0.00 | 0.43 | 0.00 | 65 | 1014.2 |
| 20260508055103 | 10 | 315 | 0.0 | 3.2 | 0.00 | 0.43 | 0.00 | 67 | 1014.3 |